TimeMDT,TemperatureF,Dew PointF,Humidity,Sea Level PressureIn,VisibilityMPH,Wind Direction,Wind SpeedMPH,Gust SpeedMPH,PrecipitationIn,Events,Conditions,WindDirDegrees,DateUTC
12:53 AM,46.9,21.9,37,30.07,10.0,East,13.8,19.6,N/A,,Clear,80,2012-10-04 06:53:00
1:53 AM,45.0,21.9,40,30.08,10.0,NE,10.4,-,N/A,,Clear,50,2012-10-04 07:53:00
2:53 AM,43.0,21.0,42,30.10,10.0,NE,9.2,-,N/A,,Clear,40,2012-10-04 08:53:00
3:53 AM,42.1,21.0,43,30.10,10.0,North,5.8,-,N/A,,Clear,360,2012-10-04 09:53:00
4:53 AM,36.0,24.1,62,30.12,10.0,Calm,Calm,-,N/A,,Clear,0,2012-10-04 10:53:00
5:53 AM,36.0,24.1,62,30.12,10.0,West,4.6,-,N/A,,Clear,280,2012-10-04 11:53:00
6:53 AM,35.1,24.1,64,30.14,10.0,West,5.8,-,N/A,,Clear,280,2012-10-04 12:53:00
7:53 AM,37.9,24.1,57,30.14,10.0,Calm,Calm,-,N/A,,Clear,0,2012-10-04 13:53:00
8:53 AM,41.0,24.1,51,30.16,10.0,East,4.6,-,N/A,,Clear,90,2012-10-04 14:53:00
9:53 AM,44.1,25.0,47,30.15,10.0,Calm,Calm,-,N/A,,Clear,0,2012-10-04 15:53:00
10:53 AM,48.0,24.1,39,30.14,10.0,Calm,Calm,-,N/A,,Clear,0,2012-10-04 16:53:00
11:53 AM,51.1,25.0,36,30.12,10.0,Calm,Calm,-,N/A,,Clear,0,2012-10-04 17:53:00
12:53 PM,54.0,26.1,34,30.09,10.0,South,4.6,-,N/A,,Clear,170,2012-10-04 18:53:00
1:53 PM,55.0,24.1,30,30.06,10.0,Calm,Calm,-,N/A,,Clear,0,2012-10-04 19:53:00
2:53 PM,57.0,25.0,29,30.02,10.0,Calm,Calm,-,N/A,,Clear,0,2012-10-04 20:53:00
3:53 PM,60.1,26.1,27,29.99,10.0,East,4.6,-,N/A,,Clear,90,2012-10-04 21:53:00
4:53 PM,61.0,27.0,27,29.98,10.0,Calm,Calm,-,N/A,,Clear,0,2012-10-04 22:53:00
5:53 PM,61.0,27.0,27,29.96,10.0,Calm,Calm,-,N/A,,Clear,0,2012-10-04 23:53:00
6:53 PM,57.9,28.9,33,29.97,10.0,Calm,Calm,-,N/A,,Clear,0,2012-10-05 00:53:00
7:53 PM,50.0,34.0,54,30.00,10.0,West,4.6,-,N/A,,Clear,270,2012-10-05 01:53:00
8:53 PM,48.9,32.0,52,29.97,10.0,NW,6.9,-,N/A,,Clear,310,2012-10-05 02:53:00
9:53 PM,48.0,30.0,50,29.95,10.0,WNW,5.8,-,N/A,,Clear,290,2012-10-05 03:53:00
10:53 PM,46.9,30.0,52,29.94,10.0,West,5.8,-,N/A,,Clear,280,2012-10-05 04:53:00
11:53 PM,48.0,30.9,52,29.93,10.0,WNW,3.5,-,N/A,,Clear,300,2012-10-05 05:53:00